Tracking 19146 objects as of 24-Apr-2018
HD Live streaming from Space Station
objects crossing your sky now

FENGYUN 1C DEB

Track FENGYUN 1C DEB now!
10-day predictions


NORAD ID: 31330
Int'l Code: 1999-025BQJ
Perigee: 801.1 km
Apogee: 849.5 km
Inclination: 99.0 °
Period: 101.3 minutes
Semi major axis: 7196 km
RCS: 0.0208 m2 (small)
Launch date: May 10, 1999
Source: People's Republic of China (PRC)
Launch site: Taiyaun Space Center, China (TSC)

Note: This is SATELLITE DEBRIS
aabbcc
Your satellite tracking list
Your tracking list is empty




NASA's NSSDC Master Catalog

Two Line Element Set (TLE):
1 31330U 99025BQJ 18113.61688227 +.00001351 +00000-0 +62699-3 0  9994
2 31330 098.9713 142.6556 0033681 064.9755 060.8289 14.22129003571117
Source of the keplerian elements: AFSPC